• Processing (Info)

  • MPEC 2014-S58 : 2014 SP143

    The following Minor Planet Electronic Circular may be linked-to from your own Web pages, but must not otherwise be redistributed electronically.

    A form allowing access to any MPEC is at the bottom of this page.


    Read MPEC 2014-S57 Read MPEC 2014-S59


    M.P.E.C. 2014-S58                                Issued 2014 Sept. 23, 16:35 UT
    
         The Minor Planet Electronic Circulars contain information on unusual
             minor planets and routine data on comets.  They are published
       on behalf of Commission 20 of the International Astronomical Union by the
              Minor Planet Center, Smithsonian Astrophysical Observatory,
                              Cambridge, MA 02138, U.S.A.
    
                 Prepared using the Tamkin Foundation Computer Network
    
                                  MPC@CFA.HARVARD.EDU
                URL https://www.minorplanetcenter.net/    ISSN 1523-6714
    
                                      2014 SP143
    
    Observations:
         K14SE3P* C2014 09 19.51181 00 13 55.675+16 40 36.80         22.1 wLES058F51
         K14SE3P  C2014 09 19.52438 00 13 56.481+16 40 25.77         22.2 wLES058F51
         K14SE3P  C2014 09 19.53648 00 13 57.297+16 40 15.29         21.8 wLES058F51
         K14SE3P KC2014 09 20.22270300 14 53.62 +16 30 30.1          22.3 VuES058H21
         K14SE3P KC2014 09 20.23342900 14 54.32 +16 30 21.0          22.2 VuES058H21
         K14SE3P KC2014 09 20.24578200 14 55.12 +16 30 10.9          22.5 VuES058H21
         K14SE3P KC2014 09 23.37546 00 18 46.27 +15 44 41.2                oES058291
         K14SE3P KC2014 09 23.38124 00 18 46.58 +15 44 36.2                oES058291
    
    Observer details:
    291 LPL/Spacewatch II.  Observer T. H. Bressi.  1.8-m f/2.7 reflector + CCD.
    F51 Pan-STARRS 1, Haleakala.  Observers N. Primak, A. Schultz, T. Goggia,
        M. Willman.  Measurers B. Bolin, K. Chambers, S. Chastel, L. Denneau,
        H. Flewelling, M. Huber, E. Magnier, E. Schunova, R. Wainscoat, C. Waters.
        1.8-m Ritchey-Chretien + CCD.
    H21 Astronomical Research Observatory, Westfield.  Observer R. Holmes.
        Measurers L. Buzzi, S. Foglia, T. Vorobjov, T. Linder.  1.3-m f/4.0
        astrograph + CCD.
    
    Orbital elements:
    2014 SP143                                               Earth MOID = 0.1756 AU
    Epoch 2014 Dec. 9.0 TT = JDT 2457000.5                  MPC
    M  36.42867              (2000.0)            P               Q
    n   0.32837774     Peri.  109.37351     +0.87302401     +0.48582462
    a   2.0807516      Node   221.58954     -0.46800322     +0.81013662
    e   0.4363801      Incl.    3.66817     -0.13712062     +0.32810532
    P   3.00           H   24.0           G   0.15           U   8
    Residuals in seconds of arc
    140919 F51  0.1+  0.2+    140920 H21  0.0   0.0     140923 291  0.2+  0.1-
    140919 F51  0.1-  0.1-    140920 H21  0.0   0.1-    140923 291  0.1-  0.2+
    140919 F51  0.1+  0.1-    140920 H21  0.0   0.1+
    
    Ephemeris:
    2014 SP143               a,e,i = 2.08, 0.44, 4                   q = 1.1728
    Date    TT    R. A. (2000) Decl.     Delta      r     Elong.  Phase     V
    2014 08 24    23 19 43.7 +18 48 16   0.1910  1.1734   145.4    29.3    22.0
    ...
    2014 09 08    23 54 59.9 +18 45 10   0.2009  1.1893   152.5    23.1    22.0
    ...
    2014 09 16    00 08 55.5 +17 26 34   0.2134  1.2059   157.9    18.2    22.0
    ...
    2014 09 22    00 17 08.2 +16 05 15   0.2265  1.2218   162.5    14.3    22.0
    2014 09 23    00 18 20.5 +15 50 30   0.2290  1.2247   163.3    13.6    22.0
    2014 09 24    00 19 30.3 +15 35 29   0.2316  1.2277   164.1    12.9    22.0
    ...
    2014 09 30    00 25 44.0 +14 02 33   0.2495  1.2471   168.6     9.2    22.1
    ...
    2014 10 08    00 32 35.5 +12 00 31   0.2796  1.2767   171.9     6.3    22.3
    ...
    2014 10 23    00 43 37.5 +08 56 09   0.3572  1.3417   163.8    12.0    23.1
    
    A. U. Tomatic                (C) Copyright 2014 MPC           M.P.E.C. 2014-S58
    

    Read MPEC 2014-S57 Read MPEC 2014-S59


    MPEC number:

    Enter an MPEC number in one of the following forms:

    • 1997-B01 (the full form)
    • J97B01 (the packed version of the full form)
    • B01 (the abbreviated form)